• In Hungary
  • List of Countries
  • For 7 days
  • Water Temperature
  • Satellite Maps
  • Weather Map
  • News
  • Weather Widgets
  • user-avatar
    Login

    Hourly Weather Kazinka

    Today, 20 August, Monday

    Time Temperature Precipitation Wind Pressure Humidity
    00:00 +18°C° 0 mm 1 mps 752 mmHg 59%
    01:00 +16°C° 0 mm 1 mps 752 mmHg 60%
    02:00 +16°C° 0 mm 1 mps 752 mmHg 61%
    03:00 +16°C° 0 mm 2 mps 752 mmHg 63%
    04:00 +16°C° 0 mm 2 mps 752 mmHg 64%
    05:00 +15°C° 0 mm 2 mps 752 mmHg 65%
    06:00 +15°C° 0 mm 2 mps 751 mmHg 67%
    07:00 +18°C° 0 mm 2 mps 752 mmHg 62%
    08:00 +20°C° 0 mm 2 mps 752 mmHg 57%
    09:00 +22°C° 0 mm 3 mps 752 mmHg 51%
    10:00 +24°C° 0 mm 3 mps 751 mmHg 48%
    11:00 +26°C° 0 mm 3 mps 751 mmHg 44%
    12:00 +27°C° 0 mm 4 mps 751 mmHg 40%
    13:00 +27°C° 0 mm 4 mps 751 mmHg 39%
    14:00 +28°C° 0 mm 4 mps 751 mmHg 39%
    15:00 +28°C° 0 mm 4 mps 751 mmHg 38%
    16:00 +27°C° 0 mm 3 mps 750 mmHg 42%
    17:00 +27°C° 0 mm 3 mps 750 mmHg 45%
    18:00 +26°C° 0 mm 2 mps 750 mmHg 49%
    19:00 +24°C° 0 mm 2 mps 750 mmHg 51%
    20:00 +23°C° 0 mm 2 mps 750 mmHg 54%
    21:00 +20°C° 0 mm 2 mps 750 mmHg 56%
    22:00 +19°C° 0 mm 2 mps 750 mmHg 56%
    23:00 +19°C° 0 mm 3 mps 749 mmHg 56%

    Tomorrow, 21 August, Tuesday

    Time Temperature Precipitation Wind Pressure Humidity
    00:00 +18°C° 0 mm 3 mps 749 mmHg 56%
    01:00 +18°C° 0 mm 3 mps 749 mmHg 57%
    02:00 +17°C° 0 mm 3 mps 749 mmHg 57%
    03:00 +17°C° 0 mm 3 mps 749 mmHg 57%
    04:00 +17°C° 0 mm 3 mps 749 mmHg 58%
    05:00 +16°C° 0 mm 3 mps 749 mmHg 59%
    06:00 +16°C° 0 mm 3 mps 749 mmHg 60%
    07:00 +18°C° 0 mm 3 mps 749 mmHg 56%
    08:00 +20°C° 0 mm 4 mps 749 mmHg 51%
    09:00 +22°C° 0 mm 4 mps 748 mmHg 46%
    10:00 +25°C° 0 mm 5 mps 748 mmHg 43%
    11:00 +27°C° 0 mm 5 mps 748 mmHg 39%
    12:00 +28°C° 0 mm 6 mps 748 mmHg 35%
    13:00 +29°C° 0 mm 6 mps 747 mmHg 35%
    14:00 +29°C° 0 mm 6 mps 747 mmHg 34%
    15:00 +29°C° 0 mm 6 mps 746 mmHg 34%
    16:00 +28°C° 0 mm 6 mps 746 mmHg 37%
    17:00 +28°C° 0 mm 5 mps 746 mmHg 41%
    18:00 +27°C° 0 mm 4 mps 745 mmHg 44%
    19:00 +25°C° 0 mm 4 mps 745 mmHg 45%
    20:00 +23°C° 0 mm 4 mps 745 mmHg 45%
    21:00 +22°C° 0 mm 4 mps 745 mmHg 46%
    22:00 +21°C° 0.1 mm 4 mps 745 mmHg 46%
    23:00 +21°C° 0.1 mm 4 mps 745 mmHg 47%

    Day after tomorrow, 22 August, Wednesday

    Time Temperature Precipitation Wind Pressure Humidity
    00:00 +21°C° 0.1 mm 4 mps 744 mmHg 48%
    01:00 +20°C° 0.5 mm 4 mps 744 mmHg 57%
    02:00 +20°C° 0.5 mm 4 mps 744 mmHg 65%
    03:00 +19°C° 0.5 mm 3 mps 744 mmHg 74%
    04:00 +18°C° 0.5 mm 3 mps 745 mmHg 78%
    05:00 +17°C° 0.5 mm 4 mps 745 mmHg 82%
    06:00 +17°C° 0.5 mm 4 mps 745 mmHg 87%
    07:00 +18°C° 0 mm 4 mps 746 mmHg 78%
    08:00 +17°C° 0 mm 5 mps 746 mmHg 69%
    09:00 +19°C° 0 mm 5 mps 746 mmHg 61%
    10:00 +20°C° 0 mm 5 mps 747 mmHg 56%
    11:00 +21°C° 0 mm 5 mps 747 mmHg 51%
    12:00 +22°C° 0 mm 5 mps 747 mmHg 47%
    13:00 +22°C° 0 mm 6 mps 748 mmHg 45%
    14:00 +22°C° 0 mm 6 mps 748 mmHg 43%
    15:00 +22°C° 0 mm 6 mps 748 mmHg 40%
    16:00 +22°C° 0 mm 5 mps 748 mmHg 44%
    17:00 +21°C° 0 mm 4 mps 748 mmHg 48%
    18:00 +20°C° 0 mm 3 mps 748 mmHg 51%
    19:00 +19°C° 0 mm 3 mps 749 mmHg 55%
    20:00 +17°C° 0 mm 3 mps 749 mmHg 58%
    21:00 +16°C° 0 mm 3 mps 750 mmHg 62%
    22:00 +14°C° 0 mm 3 mps 750 mmHg 64%
    23:00 +14°C° 0 mm 3 mps 750 mmHg 66%

    23 August, Thursday

    Time Temperature Precipitation Wind Pressure Humidity
    00:00 +13°C° 0 mm 3 mps 751 mmHg 68%
    01:00 +12°C° 0 mm 3 mps 751 mmHg 69%
    02:00 +12°C° 0 mm 3 mps 751 mmHg 70%
    03:00 +12°C° 0 mm 3 mps 752 mmHg 71%
    04:00 +11°C° 0 mm 3 mps 752 mmHg 72%
    05:00 +11°C° 0 mm 3 mps 752 mmHg 73%
    06:00 +12°C° 0 mm 2 mps 752 mmHg 73%
    07:00 +13°C° 0 mm 3 mps 753 mmHg 66%
    08:00 +16°C° 0 mm 3 mps 753 mmHg 59%
    09:00 +18°C° 0 mm 3 mps 753 mmHg 52%
    10:00 +19°C° 0 mm 3 mps 753 mmHg 48%
    11:00 +19°C° 0 mm 3 mps 753 mmHg 44%
    12:00 +20°C° 0 mm 3 mps 753 mmHg 40%
    13:00 +21°C° 0 mm 3 mps 753 mmHg 40%
    14:00 +21°C° 0 mm 3 mps 753 mmHg 39%
    15:00 +21°C° 0 mm 3 mps 753 mmHg 38%
    16:00 +21°C° 0 mm 2 mps 753 mmHg 41%
    17:00 +20°C° 0 mm 2 mps 753 mmHg 45%
    18:00 +20°C° 0 mm 2 mps 753 mmHg 48%
    19:00 +18°C° 0 mm 2 mps 753 mmHg 51%
    20:00 +18°C° 0 mm 1 mps 754 mmHg 55%
    21:00 +15°C° 0 mm 1 mps 754 mmHg 58%
    22:00 +14°C° 0 mm 1 mps 754 mmHg 60%
    23:00 +14°C° 0 mm 1 mps 754 mmHg 61%

    24 August, Friday

    Time Temperature Precipitation Wind Pressure Humidity
    00:00 +12°C° 0 mm 0 mps 754 mmHg 63%
    01:00 +12°C° 0 mm 0 mps 754 mmHg 64%
    02:00 +12°C° 0 mm 0 mps 754 mmHg 65%
    03:00 +11°C° 0 mm 0 mps 754 mmHg 66%
    04:00 +11°C° 0 mm 0 mps 754 mmHg 67%
    05:00 +11°C° 0 mm 0 mps 754 mmHg 68%
    06:00 +11°C° 0 mm 0 mps 754 mmHg 69%
    07:00 +13°C° 0 mm 0 mps 754 mmHg 62%
    08:00 +16°C° 0 mm 0 mps 754 mmHg 56%
    09:00 +18°C° 0 mm 0 mps 754 mmHg 50%
    10:00 +19°C° 0 mm 0 mps 754 mmHg 46%
    11:00 +20°C° 0 mm 0 mps 754 mmHg 43%
    12:00 +21°C° 0 mm 0 mps 754 mmHg 39%
    13:00 +24°C° 0 mm 1 mps 753 mmHg 38%
    14:00 +24°C° 0 mm 1 mps 753 mmHg 36%
    15:00 +24°C° 0 mm 1 mps 753 mmHg 35%
    16:00 +24°C° 0 mm 1 mps 753 mmHg 38%
    17:00 +23°C° 0 mm 1 mps 752 mmHg 41%
    18:00 +23°C° 0 mm 1 mps 752 mmHg 44%
    19:00 +21°C° 0 mm 1 mps 752 mmHg 47%
    20:00 +19°C° 0 mm 1 mps 752 mmHg 49%
    21:00 +18°C° 0 mm 1 mps 752 mmHg 52%
    22:00 +16°C° 0 mm 1 mps 752 mmHg 54%
    23:00 +16°C° 0 mm 1 mps 752 mmHg 56%

    25 August, Saturday

    Time Temperature Precipitation Wind Pressure Humidity
    00:00 +15°C° 0 mm 1 mps 752 mmHg 58%
    01:00 +15°C° 0 mm 1 mps 752 mmHg 59%
    02:00 +14°C° 0 mm 1 mps 752 mmHg 60%
    03:00 +13°C° 0 mm 0 mps 752 mmHg 62%
    04:00 +14°C° 0 mm 1 mps 752 mmHg 63%
    05:00 +14°C° 0 mm 1 mps 752 mmHg 64%
    06:00 +14°C° 0 mm 1 mps 752 mmHg 65%
    07:00 +16°C° 0 mm 1 mps 753 mmHg 60%
    08:00 +19°C° 0 mm 1 mps 753 mmHg 54%
    09:00 +21°C° 0 mm 1 mps 753 mmHg 49%
    10:00 +22°C° 0 mm 1 mps 753 mmHg 45%
    11:00 +23°C° 0 mm 1 mps 752 mmHg 41%
    12:00 +24°C° 0 mm 1 mps 752 mmHg 38%
    13:00 +25°C° 0 mm 2 mps 752 mmHg 36%
    14:00 +25°C° 0 mm 2 mps 752 mmHg 35%
    15:00 +26°C° 0 mm 2 mps 751 mmHg 34%
    16:00 +25°C° 0 mm 2 mps 751 mmHg 38%
    17:00 +25°C° 0 mm 1 mps 751 mmHg 41%
    18:00 +24°C° 0 mm 1 mps 751 mmHg 45%
    19:00 +22°C° 0 mm 1 mps 751 mmHg 48%
    20:00 +21°C° 0 mm 1 mps 751 mmHg 51%
    21:00 +19°C° 0 mm 1 mps 751 mmHg 53%
    22:00 +19°C° 0 mm 1 mps 751 mmHg 56%
    23:00 +18°C° 0 mm 1 mps 751 mmHg 58%
    Show more